Wetbulb
68.25 68.87 69.85 70.57 69.70 69.54 69.74 69.95 69.01 68.82 69.36 68.92 68.67 67.37 68.78 68.60 69.51 71.06 72.20 71.58 72.31 71.75 70.66 70.55 70.48 70.74 69.27 70.17 70.04 69.36 69.23 68.42 70.34 69.00 68.84 69.55 70.18 69.86 70.00 70.76 70.24 69.76 70.29
66.89 67.69 68.87 69.97 69.52 68.57 68.88 69.24 68.90 68.87 69.06 70.11 70.46 69.56 68.71 67.66 68.55 70.80 71.42 71.43 71.82 71.64 70.89 70.55 70.40 70.36 68.89 69.57 69.93 69.18 67.96 68.55 70.07 67.13 66.27 64.54 67.28 69.70 70.18 70.19 70.07 69.74 69.27
65.81 66.89 68.42 69.02 69.61 68.65 68.65 68.85 69.03 68.81 69.11 69.35 69.03 69.47 69.61 68.85 67.63 68.14 70.39 71.31 71.88 71.43 71.32 70.71 70.63 70.46 69.46 70.15 69.99 70.01 68.17 66.43 69.55 68.24 66.21 62.67 61.96 65.72 69.77 69.70 69.95 69.34 68.55
66.29 67.21 68.06 68.69 69.10 69.19 69.55 69.34 69.14 69.09 69.02 69.28 68.65 68.88 67.94 67.70 67.51 68.20 69.88 71.03 71.64 72.03 71.68 71.23 71.03 71.14 70.50 69.83 69.86 69.97 69.56 67.45 66.85 69.21 69.41 67.40 66.15 63.18 63.57 68.69 69.54 69.39 68.82
65.71 67.14 67.57 68.60 69.58 70.31 69.10 69.04 69.17 69.04 69.38 69.04 69.16 68.80 67.86 68.39 69.00 68.38 69.29 70.62 71.19 71.87 71.99 71.51 71.47 71.27 71.56 70.63 70.13 70.47 68.94 69.50 67.35 67.24 67.62 66.88 66.95 66.52 65.03 62.92 66.35 68.46 69.23
67.49 68.03 68.57 68.97 68.67 70.41 70.00 69.60 69.46 69.50 69.67 69.65 69.35 68.80 68.56 68.18 68.95 68.50 68.78 70.57 71.22 71.56 71.80 71.76 71.69 72.01 71.90 71.35 71.00 71.63 70.35 69.52 68.46 68.28 68.64 67.44 67.10 66.68 67.03 65.79 65.70 65.82 66.88
67.27 67.45 66.94 67.64 68.07 68.82 70.70 70.63 70.30 70.07 70.16 70.10 69.93 69.49 69.21 68.95 69.29 69.36 69.38 70.24 70.61 70.75 71.38 71.95 71.37 71.84 72.34 71.44 70.69 70.23 70.42 70.42 69.18 68.69 69.36 69.36 69.07 69.09 68.42 67.29 65.82 65.72 67.22
66.99 67.29 68.08 68.38 68.69 69.20 70.12 71.18 70.56 70.28 71.31 71.52 70.67 70.45 69.97 70.13 70.34 70.39 70.55 70.99 71.25 71.42 71.92 72.37 72.05 71.32 71.30 70.97 71.07 70.25 70.00 69.56 68.44 67.94 68.85 69.07 69.86 69.34 68.35 67.49 66.31 64.55 65.14
67.56 67.77 68.47 69.04 69.18 69.63 69.95 71.16 71.31 70.99 71.01 72.16 72.22 72.01 71.13 70.85 70.58 70.83 71.10 71.45 71.80 72.21 71.79 71.89 72.25 71.50 71.12 70.67 69.34 68.53 68.30 69.16 68.57 67.99 68.53 69.03 69.73 70.02 69.55 69.30 68.48 66.95 63.97
68.19 68.46 68.19 68.68 69.77 70.32 70.67 71.06 72.09 71.81 71.63 71.81 71.90 71.80 72.41 72.83 72.45 71.87 71.06 70.88 71.48 72.23 71.60 71.28 71.55 70.72 70.41 69.84 69.09 68.17 68.03 67.81 68.46 69.14 68.89 69.16 70.36 69.95 70.34 70.49 70.27 69.12 67.00
67.95 68.48 68.51 69.18 69.91 70.29 70.46 70.81 71.76 72.22 72.20 72.77 72.72 73.08 73.24 72.78 73.45 72.97 72.27 71.85 71.45 71.02 70.45 70.47 71.31 70.61 69.82 69.21 68.73 68.64 68.69 68.60 68.66 69.12 69.52 69.59 70.13 70.38 70.59 71.31 70.54 69.75 69.16
68.03 68.61 68.22 68.38 69.30 69.08 68.34 70.36 71.50 72.01 72.97 73.63 73.86 73.83 74.25 74.44 74.02 73.55 73.30 72.81 71.77 71.41 70.74 70.25 70.40 70.47 69.77 69.55 69.41 69.18 69.61 69.34 68.80 69.07 69.03 69.88 70.99 69.82 70.04 70.07 69.91 70.13 69.63
59.17 63.84 66.08 66.03 68.00 68.27 68.25 69.78 71.13 72.13 73.29 73.90 73.86 73.99 74.48 74.35 74.06 73.52 73.25 72.63 71.84 71.53 71.31 70.92 70.27 70.16 70.29 70.18 69.79 69.36 69.23 69.75 69.75 69.45 69.36 69.50 68.33 68.80 68.89 69.27 69.59 69.95 69.91
60.33 60.92 61.53 63.76 67.40 67.96 68.71 69.47 71.52 73.01 74.02 74.22 74.37 73.62 74.05 74.16 73.90 73.33 72.38 71.98 71.95 71.55 71.51 71.31 70.92 70.63 70.20 70.36 70.54 70.56 70.20 70.34 70.40 70.38 69.86 69.12 68.57 68.44 69.18 69.14 69.48 70.25 69.64
60.53 61.42 61.99 64.12 65.02 66.00 67.42 69.97 71.86 73.00 73.55 72.85 72.84 72.38 72.87 73.14 72.40 72.13 71.95 71.59 71.62 71.54 71.32 70.83 70.63 70.58 71.01 71.35 70.49 70.88 70.56 70.04 69.55 69.52 68.73 68.60 69.59 70.17 69.18 69.55 69.45 69.97 69.46
61.10 61.96 63.88 64.14 65.26 66.82 67.61 69.32 70.58 71.15 71.93 71.05 71.49 71.47 71.43 71.45 71.38 71.23 71.23 71.12 71.10 70.83 70.70 70.40 70.49 69.93 71.90 69.51 69.50 71.12 70.63 70.22 69.36 68.03 67.02 66.88 69.28 67.88 68.30 68.44 68.39 69.18 69.12
62.06 62.88 64.01 64.65 66.15 67.31 68.48 68.69 69.55 70.04 70.75 70.43 70.44 71.15 71.11 71.00 70.64 70.82 70.65 70.56 70.56 69.84 69.72 69.88 70.27 69.93 70.51 68.01 67.99 69.90 70.43 69.73 68.62 67.54 66.30 65.83 68.42 67.58 67.24 68.15 66.91 67.07 67.31
62.30 62.16 62.66 65.50 67.10 68.08 68.61 68.95 70.09 70.56 70.19 69.96 70.64 71.17 71.04 70.81 70.46 70.41 70.47 70.12 70.15 70.40 70.28 70.48 70.93 70.77 71.17 67.04 66.96 68.54 70.63 69.57 68.57 67.36 66.33 65.13 65.78 65.58 65.60 65.78 67.18 67.02 67.85
60.62 61.30 62.58 66.13 68.98 69.61 69.92 70.40 70.37 71.03 70.14 69.53 70.65 71.21 70.94 70.50 70.24 70.17 70.08 69.88 69.97 70.15 70.37 70.69 70.78 71.03 71.25 64.91 64.66 66.53 68.91 68.33 67.40 67.29 66.64 65.74 65.22 64.49 63.67 64.36 63.51 64.44 65.07
62.98 62.88 65.21 68.68 70.80 70.72 71.57 71.00 70.54 71.22 70.99 70.64 71.56 72.28 71.76 71.29 70.70 70.73 70.15 70.22 70.62 70.57 71.26 71.23 71.50 69.30 71.07 65.77 63.00 64.33 68.87 67.81 67.31 66.59 66.43 64.77 64.84 62.27 61.65 63.84 62.71 61.73 62.95
67.97 69.77 69.89 70.81 71.44 72.24 72.58 71.11 71.08 70.82 72.24 72.46 72.27 72.76 72.24 71.89 72.14 71.63 71.12 70.69 70.85 70.81 70.74 70.76 70.56 70.51 69.36 67.70 60.56 60.62 67.17 68.39 67.47 67.17 66.79 67.08 62.12 59.64 59.13 60.29 63.34 62.89 62.83
68.85 70.43 70.26 70.92 72.02 72.90 72.90 72.07 71.50 72.02 72.16 72.09 71.64 71.65 71.72 71.98 71.77 71.18 70.94 70.94 70.74 69.91 69.50 69.07 68.01 68.64 67.99 63.64 59.33 59.35 62.22 64.91 67.45 66.99 67.49 67.78 60.82 57.72 57.84 59.53 61.10 60.22 61.68
67.14 68.59 69.86 69.75 70.00 72.02 72.83 71.42 70.06 72.03 73.02 72.30 71.81 71.54 71.74 71.64 71.66 71.35 70.61 70.54 70.34 67.92 66.92 65.88 65.52 66.54 67.87 67.22 60.28 58.45 58.97 60.24 63.91 65.86 64.39 61.35 56.11 55.38 57.20 58.43 60.08 61.37 63.43
60.87 61.80 65.71 68.33 68.21 69.34 69.94 69.76 70.31 71.23 72.43 71.59 71.28 71.10 71.24 70.31 71.10 70.31 70.09 67.83 68.01 66.97 66.34 63.91 64.16 64.43 67.46 66.35 66.56 64.54 62.25 59.90 61.16 61.88 61.92 60.94 60.11 59.92 61.16 62.07 60.54 63.35 64.66
61.32 61.54 61.43 66.14 66.18 66.75 67.04 68.33 69.14 69.88 68.98 68.46 67.96 67.62 68.19 68.64 67.35 66.06 65.93 66.40 65.27 65.16 65.14 64.59 65.07 65.00 63.84 64.34 60.08 60.04 63.23 63.28 60.42 60.54 61.52 59.87 59.87 60.09 61.28 62.03 62.53 63.05 62.37
62.11 60.87 60.74 66.35 65.94 64.59 64.72 64.95 65.90 66.78 66.21 65.70 66.22 65.36 64.59 63.87 63.49 63.37 63.12 52.30 53.39 51.40 49.58 49.95 58.14 62.17 55.00 52.30 49.95 48.31 49.04 49.22 51.94 60.26 61.42 60.93 60.37 60.43 61.42 61.19 60.50 60.38 61.32
MSLP
1006.07 1006.63 1007.14 1007.85 1008.81 1009.65 1010.48 1010.86 1011.71 1012.29 1013.03 1013.77 1014.13 1014.45 1014.47 1014.57 1014.69 1014.65 1014.66 1015.00 1015.29 1015.76 1016.24 1016.64 1017.02 1017.24 1017.64 1017.70 1017.89 1018.38 1018.61 1018.86 1019.09 1019.59 1019.75 1019.76 1019.76 1019.71 1019.77 1019.71 1020.03 1020.42 1020.56
1005.93 1006.30 1006.93 1007.38 1007.99 1008.82 1009.67 1010.43 1010.95 1011.70 1012.29 1012.83 1013.08 1013.38 1013.63 1013.90 1014.07 1014.06 1014.26 1014.48 1014.85 1015.34 1015.82 1016.28 1016.67 1017.00 1017.44 1017.79 1017.86 1018.04 1018.57 1018.81 1018.98 1019.25 1019.66 1019.72 1019.78 1019.63 1019.57 1019.68 1019.86 1020.05 1020.24
1005.41 1005.89 1006.22 1006.75 1007.50 1008.20 1008.83 1009.46 1010.03 1010.77 1011.52 1012.17 1012.78 1013.20 1013.67 1013.99 1014.18 1014.17 1014.26 1014.36 1014.43 1015.08 1015.34 1015.74 1016.05 1016.66 1017.12 1017.37 1017.60 1017.79 1018.00 1018.50 1018.71 1018.84 1019.02 1019.51 1019.42 1019.41 1019.18 1019.22 1019.40 1019.78 1020.13
1004.60 1005.31 1005.68 1006.29 1006.78 1007.15 1007.87 1008.63 1009.30 1009.98 1010.82 1011.59 1012.22 1012.57 1012.83 1013.27 1013.48 1013.58 1013.81 1014.11 1014.17 1014.49 1014.86 1015.28 1015.67 1016.02 1016.57 1016.97 1017.12 1017.33 1017.60 1018.02 1018.56 1018.88 1018.77 1018.84 1018.86 1019.15 1019.27 1019.15 1019.21 1019.48 1019.67
1003.96 1004.36 1004.74 1005.08 1005.69 1006.58 1007.28 1007.95 1008.66 1009.28 1009.98 1010.90 1011.43 1012.06 1012.44 1012.58 1012.80 1013.11 1013.49 1013.80 1014.03 1014.06 1014.41 1014.79 1015.21 1015.71 1016.05 1016.33 1016.66 1017.04 1017.29 1017.59 1017.93 1018.22 1018.40 1018.72 1018.76 1018.90 1019.10 1019.08 1019.06 1019.12 1019.15
1003.08 1003.56 1003.86 1004.55 1005.24 1005.99 1006.73 1007.45 1008.27 1008.76 1009.42 1010.11 1010.89 1011.43 1011.82 1012.22 1012.54 1012.86 1013.26 1013.54 1013.78 1013.98 1014.02 1014.32 1014.70 1014.94 1015.44 1015.74 1016.00 1016.38 1016.78 1017.17 1017.41 1017.68 1017.91 1017.95 1018.18 1018.28 1018.62 1018.87 1018.84 1018.63 1018.64
1002.53 1002.96 1003.49 1004.12 1004.76 1005.39 1006.09 1006.86 1007.70 1008.30 1008.99 1009.56 1010.03 1010.50 1011.08 1011.75 1012.04 1012.16 1012.51 1013.01 1013.38 1013.59 1013.78 1014.12 1014.49 1014.71 1014.86 1015.12 1015.38 1015.94 1016.29 1016.62 1016.97 1017.23 1017.37 1017.40 1017.42 1017.47 1017.77 1018.15 1018.30 1018.35 1018.13
1002.00 1002.61 1002.64 1003.06 1003.89 1004.67 1005.36 1006.09 1006.90 1007.56 1008.16 1008.69 1009.14 1009.86 1010.51 1011.01 1011.36 1011.66 1011.97 1012.29 1012.56 1012.83 1013.14 1013.55 1013.85 1014.08 1014.36 1014.70 1014.98 1015.52 1015.93 1016.22 1016.54 1016.79 1016.94 1017.00 1017.09 1017.22 1017.40 1017.54 1017.94 1017.93 1017.80
1001.27 1001.73 1002.31 1002.61 1003.24 1003.91 1004.48 1005.18 1005.97 1006.68 1007.53 1007.85 1008.69 1009.31 1009.90 1010.38 1010.70 1011.06 1011.56 1011.82 1012.09 1012.38 1012.52 1013.03 1013.22 1013.55 1013.94 1014.48 1014.60 1015.14 1015.41 1015.74 1016.03 1016.30 1016.34 1016.48 1016.58 1016.72 1016.80 1016.99 1017.12 1017.32 1017.44
1000.66 1001.19 1001.95 1002.38 1002.67 1003.07 1003.58 1004.49 1005.13 1005.82 1006.41 1007.34 1007.96 1008.73 1009.06 1009.56 1010.09 1010.67 1010.96 1011.28 1011.69 1011.91 1012.26 1012.60 1013.01 1013.36 1013.84 1014.13 1014.33 1014.77 1015.03 1015.43 1015.62 1015.75 1015.82 1015.88 1016.01 1016.04 1016.11 1016.22 1016.31 1016.60 1016.91
999.75 1000.50 1000.94 1001.48 1002.12 1002.86 1003.38 1003.75 1004.56 1005.38 1006.10 1006.70 1007.20 1007.65 1008.24 1008.78 1009.42 1009.91 1010.36 1010.77 1011.10 1011.36 1011.66 1012.36 1012.55 1013.16 1013.47 1013.75 1014.17 1014.37 1014.67 1015.00 1015.15 1015.25 1015.32 1015.37 1015.48 1015.51 1015.51 1015.53 1015.48 1015.78 1016.09
999.22 999.38 1000.03 1000.73 1001.55 1002.41 1002.95 1003.26 1004.04 1004.84 1005.39 1006.09 1006.81 1007.33 1007.89 1008.48 1009.00 1009.43 1009.78 1010.17 1010.51 1010.88 1011.28 1011.82 1012.21 1012.51 1012.83 1013.23 1013.62 1013.93 1014.16 1014.46 1014.65 1014.68 1014.81 1014.72 1014.78 1014.71 1014.81 1014.93 1014.88 1015.02 1015.12
998.93 999.32 999.76 1000.20 1001.05 1001.94 1002.39 1002.90 1003.51 1004.25 1005.07 1005.77 1006.49 1007.19 1007.66 1008.07 1008.45 1008.86 1009.21 1009.56 1009.96 1010.30 1010.72 1011.18 1011.62 1012.06 1012.31 1012.66 1013.05 1013.33 1013.63 1013.92 1014.05 1014.20 1014.36 1014.32 1014.50 1014.41 1014.15 1013.97 1013.99 1014.14 1014.31
998.32 998.69 999.61 1000.34 1000.73 1001.57 1002.00 1002.58 1003.25 1003.88 1004.73 1005.45 1006.21 1006.87 1007.27 1007.51 1007.83 1008.24 1008.70 1009.10 1009.45 1009.88 1010.21 1010.47 1010.76 1011.12 1011.56 1012.03 1012.47 1012.87 1013.15 1013.37 1013.53 1013.72 1013.79 1013.83 1013.93 1013.88 1013.68 1013.51 1013.41 1013.35 1013.58
998.70 998.22 998.84 999.96 1000.60 1001.46 1001.79 1002.39 1003.03 1003.57 1004.23 1005.27 1005.93 1006.41 1006.71 1007.05 1007.53 1007.91 1008.21 1008.62 1009.05 1009.40 1009.75 1010.21 1010.51 1010.72 1010.95 1011.26 1011.57 1011.92 1012.27 1012.62 1012.84 1012.97 1013.04 1013.15 1013.28 1013.27 1013.07 1012.86 1012.54 1012.68 1012.91
997.72 998.25 998.85 999.28 1000.02 1000.86 1001.13 1001.75 1002.81 1003.38 1003.92 1004.93 1005.57 1006.02 1006.44 1006.91 1007.35 1007.76 1007.97 1008.39 1008.74 1009.00 1009.35 1009.80 1010.10 1010.48 1010.77 1010.93 1011.11 1011.26 1011.42 1011.57 1011.84 1012.24 1012.57 1012.89 1013.01 1012.86 1012.70 1012.36 1012.36 1012.46 1012.43
997.33 997.64 998.05 998.78 999.29 1000.05 1000.80 1001.38 1001.94 1003.08 1003.90 1004.57 1005.22 1005.73 1006.11 1006.58 1007.04 1007.41 1007.85 1008.19 1008.44 1008.83 1009.16 1009.39 1009.72 1010.01 1010.08 1010.20 1010.52 1010.87 1011.21 1011.37 1011.44 1011.58 1011.95 1012.39 1012.57 1012.65 1012.55 1012.34 1012.31 1012.45 1012.55
997.38 996.98 996.98 997.94 998.99 1000.05 1000.69 1001.46 1001.92 1002.68 1003.66 1004.28 1004.79 1005.31 1005.75 1006.14 1006.60 1007.06 1007.45 1007.84 1008.16 1008.35 1008.53 1008.67 1008.86 1009.18 1009.36 1009.09 1008.77 1009.44 1010.21 1010.73 1010.96 1011.19 1011.45 1011.79 1012.12 1012.39 1012.56 1012.60 1012.56 1012.50 1012.40
996.75 996.52 996.21 996.61 998.11 999.86 1000.37 1001.19 1002.12 1002.77 1003.62 1004.27 1004.63 1005.06 1005.40 1005.88 1006.31 1006.75 1007.12 1007.47 1007.77 1008.03 1008.16 1008.30 1008.53 1008.79 1008.96 1009.40 1009.71 1009.51 1009.31 1009.65 1010.16 1010.58 1011.00 1011.40 1011.72 1011.98 1012.26 1012.65 1012.93 1012.92 1012.68
998.38 996.63 996.77 997.51 998.20 999.63 1000.19 1000.96 1001.99 1002.52 1003.15 1003.77 1004.04 1004.49 1004.99 1005.43 1005.83 1006.19 1006.67 1006.98 1007.28 1007.50 1007.71 1007.96 1008.09 1008.36 1008.60 1008.77 1009.18 1009.72 1009.78 1009.68 1009.36 1010.09 1010.56 1011.00 1011.36 1011.70 1012.02 1012.44 1012.72 1013.10 1012.86
998.44 997.81 998.02 998.42 998.12 999.35 999.73 1000.97 1001.66 1002.02 1002.29 1002.90 1003.49 1004.08 1004.58 1004.95 1005.23 1005.73 1006.26 1006.70 1007.09 1007.40 1007.59 1007.64 1007.76 1007.99 1008.15 1008.42 1008.77 1009.08 1009.42 1009.42 1008.68 1009.71 1010.14 1010.29 1010.77 1011.31 1011.63 1012.12 1012.40 1012.30 1012.36
998.66 998.20 998.09 998.57 998.94 999.17 999.66 1000.66 1001.59 1001.84 1002.14 1002.85 1003.47 1003.89 1004.34 1004.85 1005.26 1005.69 1006.03 1006.42 1006.91 1007.27 1007.43 1007.53 1007.58 1007.67 1007.95 1008.23 1008.60 1008.80 1008.95 1009.13 1008.61 1008.69 1009.11 1009.55 1010.00 1010.72 1011.07 1011.51 1011.58 1012.03 1012.25
1000.04 1000.74 999.32 999.11 999.17 999.67 999.87 1000.62 1001.52 1001.72 1002.05 1002.72 1003.35 1003.89 1004.37 1004.77 1005.16 1005.66 1005.99 1006.34 1006.50 1006.85 1007.23 1007.52 1007.80 1007.74 1007.75 1008.09 1008.43 1008.80 1008.94 1008.86 1008.77 1008.43 1008.13 1009.06 1009.74 1010.37 1010.73 1010.89 1011.12 1011.77 1012.16
1001.35 1001.43 1001.71 1000.15 999.66 999.82 1000.13 1000.76 1001.30 1001.44 1001.97 1002.69 1003.32 1003.78 1004.27 1004.70 1005.10 1005.46 1005.88 1006.27 1006.67 1006.90 1007.22 1007.73 1007.92 1007.92 1007.96 1008.12 1008.40 1008.75 1008.86 1008.70 1008.64 1008.22 1008.51 1008.80 1009.53 1010.13 1010.29 1010.58 1010.73 1011.09 1011.30
1001.42 1001.16 1002.74 1003.78 1001.20 1000.69 1000.97 1001.17 1001.25 1001.33 1002.17 1002.87 1003.59 1004.11 1004.42 1004.84 1005.33 1005.75 1006.09 1006.33 1006.68 1007.04 1007.45 1007.77 1007.83 1007.81 1008.01 1007.94 1008.06 1008.44 1008.61 1008.68 1008.72 1008.81 1009.11 1009.23 1009.59 1009.77 1009.76 1010.34 1010.49 1010.54 1010.80
1000.63 1000.58 1002.99 1005.05 1005.19 1002.65 1002.08 1002.34 1002.10 1001.97 1002.43 1003.28 1003.96 1004.39 1004.65 1005.15 1005.62 1006.11 1006.64 1007.01 1007.10 1007.21 1007.33 1007.64 1007.82 1007.92 1007.89 1007.87 1008.17 1008.50 1008.61 1008.60 1008.90 1008.92 1008.98 1008.64 1008.88 1008.89 1009.07 1009.43 1009.69 1010.04 1010.18
Wind_Speed
10 14 17 18 15 13 16 16 14 11 10 7 5 4 8 6 3 5 10 10 9 9 8 6 6 5 5 5 5 3 3 1 3 2 1 3 4 4 4 3 4 6 7
8 10 13 16 17 17 18 17 17 13 10 9 9 6 4 4 4 6 7 10 10 8 9 8 7 7 5 5 6 4 3 2 4 3 1 2 1 5 6 6 5 6 6
12 12 15 16 14 17 17 17 18 16 13 9 4 3 3 2 2 2 3 7 11 9 10 9 7 6 5 6 7 7 6 4 4 4 3 2 3 1 2 7 6 5 5
9 9 14 15 15 16 15 15 17 17 14 12 7 8 5 8 5 5 4 5 9 10 10 9 9 8 6 6 7 5 4 4 4 2 4 2 2 3 1 1 6 6 7
12 14 16 18 17 14 15 15 16 16 15 13 13 10 7 5 3 3 7 6 6 8 10 10 9 8 7 7 6 5 5 4 4 3 2 3 2 2 2 2 2 4 6
13 13 15 14 13 11 13 14 15 15 15 15 15 15 15 8 6 5 5 6 5 7 8 9 8 9 8 8 8 7 7 6 5 4 4 4 4 4 4 4 3 3 4
12 12 12 13 12 14 15 14 16 16 15 15 16 16 15 10 12 8 6 7 6 5 9 9 8 7 8 8 8 7 6 6 5 6 5 3 3 3 3 3 3 4 3
10 12 16 15 15 15 15 15 16 15 16 16 16 14 13 9 9 8 6 7 7 8 9 11 10 10 8 7 7 4 4 5 5 6 5 4 5 4 4 4 4 2 3
13 14 13 14 14 14 16 17 16 16 15 17 12 12 11 11 10 7 8 7 6 6 9 10 11 9 8 8 6 5 6 5 5 5 6 6 4 5 6 5 4 4 3
13 13 9 11 12 13 14 14 15 17 16 14 12 11 11 11 9 8 9 8 7 7 7 9 7 6 5 5 6 4 4 5 5 4 6 6 5 6 6 7 7 6 6
15 13 11 10 11 9 11 14 13 13 12 13 12 11 10 10 8 9 8 8 6 8 8 7 6 6 7 6 6 6 5 7 6 6 7 8 6 6 6 7 6 7 7
15 16 12 10 10 10 9 14 12 12 13 12 11 11 9 8 8 8 8 7 8 7 9 10 10 8 7 7 8 8 6 8 9 7 6 8 6 9 8 6 8 8 9
8 6 8 12 13 11 9 10 11 12 10 11 10 9 9 9 9 8 8 8 8 8 7 8 9 9 8 8 7 6 6 6 6 5 6 8 5 8 6 7 8 8 7
11 10 7 7 11 11 10 8 8 10 10 11 10 10 9 9 9 8 7 7 7 7 8 9 9 8 8 7 7 7 7 7 6 6 6 6 5 7 9 8 9 8 8
6 9 11 9 9 7 7 7 8 10 11 10 9 9 8 7 6 7 7 6 7 7 7 7 6 6 8 7 9 9 8 7 6 6 6 5 6 10 9 7 9 9 9
9 7 5 8 9 12 12 11 9 10 11 10 9 7 7 7 7 6 7 7 7 7 7 7 7 7 5 9 12 10 8 8 7 6 5 4 7 7 8 4 5 6 9
4 8 8 7 9 10 10 12 13 9 9 9 8 8 8 8 8 7 7 8 8 6 7 7 7 8 8 13 12 12 5 5 6 6 5 4 3 5 5 4 3 1 4
8 8 7 7 5 5 7 7 9 10 9 10 10 9 8 8 8 8 9 7 5 9 7 9 9 8 8 15 19 17 8 6 6 7 6 6 4 5 3 2 2 3 4
11 10 13 9 9 9 9 9 8 8 8 8 8 8 8 8 8 8 8 6 6 6 6 5 7 7 6 8 10 8 8 7 8 7 6 6 6 7 7 4 3 4 4
10 8 7 5 11 9 11 12 11 11 9 8 10 9 9 8 9 9 8 4 4 6 5 7 7 8 7 7 9 7 3 5 6 6 6 10 8 9 10 7 6 5 7
4 3 9 14 13 13 13 11 10 11 11 9 8 9 9 9 8 6 5 5 5 5 6 6 5 6 6 4 8 11 5 5 7 5 4 5 12 12 12 11 7 9 5
4 4 8 6 6 10 13 11 10 5 7 7 6 5 5 4 5 7 5 5 5 5 6 6 5 4 4 8 9 13 11 9 5 6 4 4 7 10 12 10 14 9 6
10 13 1 11 7 7 10 11 6 6 7 7 7 6 5 5 5 6 5 4 5 4 5 4 4 4 3 4 8 9 10 10 5 5 7 6 2 4 7 13 10 8 5
14 18 21 2 9 8 9 9 6 6 7 6 6 5 6 5 4 2 2 2 3 2 1 1 2 2 2 3 2 3 4 3 4 2 1 4 4 5 4 4 7 7 7
10 17 22 17 2 7 7 6 6 8 8 7 5 5 4 4 4 3 2 3 2 1 2 2 3 4 4 4 5 4 3 2 3 3 1 2 3 3 3 3 4 5 5
8 18 23 17 15 3 7 5 5 8 9 7 5 4 4 4 4 3 3 9 6 7 8 5 1 1 3 3 5 1 2 1 4 2 3 2 3 3 4 5 4 4 7
Wind_Direction
205 187 188 177 174 171 177 184 178 183 176 194 186 183 195 198 207 202 196 191 188 192 178 177 175 172 176 181 169 132 188 167 140 125 243 234 220 221 228 203 188 184 193
185 178 187 184 178 177 183 183 190 184 184 192 201 203 180 188 189 192 185 185 187 180 179 182 190 182 173 187 183 164 129 183 169 154 97 196 205 221 218 212 211 200 182
193 180 178 185 176 181 184 187 188 188 188 181 141 105 100 65 116 185 182 193 188 185 187 189 184 181 179 190 189 188 164 166 194 208 156 147 225 170 192 206 207 195 193
194 178 181 181 190 191 186 186 189 190 192 185 181 182 176 199 191 179 179 191 194 191 190 188 187 187 192 191 196 185 164 134 184 216 228 214 156 189 241 198 216 203 201
204 178 187 186 194 179 184 185 188 193 189 183 196 198 201 203 175 162 173 183 191 196 194 189 184 188 194 204 189 178 184 182 159 188 149 201 217 184 190 242 207 207 210
199 192 188 184 183 181 178 180 185 195 193 190 192 197 207 194 183 174 175 186 192 196 196 195 194 199 198 199 201 190 186 195 196 188 200 177 176 194 202 222 227 220 214
192 188 178 183 181 178 183 181 186 196 193 194 195 198 204 195 206 187 179 174 184 191 204 197 195 200 209 201 195 192 186 189 197 207 216 202 215 161 176 166 226 229 220
182 198 196 191 189 185 184 186 189 195 192 192 203 202 199 201 206 193 188 190 194 199 192 201 202 201 201 204 179 183 187 191 200 216 216 209 220 205 186 182 177 247 241
188 203 202 194 193 193 192 192 193 200 193 199 196 200 195 194 199 190 193 197 190 192 195 203 208 209 211 209 183 195 198 195 206 223 226 225 218 205 211 212 188 186 241
191 201 194 203 206 201 202 196 198 199 200 199 198 192 188 194 189 192 201 192 186 184 184 199 193 203 188 196 184 182 187 203 226 226 225 230 223 218 218 215 205 202 212
190 202 188 193 207 212 197 199 194 190 191 192 194 192 188 183 179 191 195 199 186 187 183 184 182 194 187 179 188 202 202 217 232 224 227 242 231 231 231 220 208 209 201
202 190 183 178 190 204 185 192 185 185 190 183 182 194 180 177 186 198 198 184 192 183 178 178 189 197 182 182 197 214 209 223 237 237 230 250 246 234 227 218 219 218 212
183 198 180 174 188 201 189 183 173 184 177 169 172 176 179 179 188 193 195 180 177 183 177 172 177 183 186 185 197 200 205 217 229 237 242 260 248 258 251 228 219 214 210
175 165 165 195 190 200 190 174 167 166 165 167 166 172 183 191 190 187 184 179 179 176 178 182 180 178 175 184 191 200 209 215 222 228 236 246 247 257 270 249 232 220 211
192 173 169 184 182 186 172 166 161 160 158 159 161 179 188 181 172 172 181 179 172 181 177 176 187 183 180 188 189 194 201 208 220 226 225 235 253 266 266 265 245 218 208
176 133 151 148 181 196 186 163 162 163 154 159 173 168 169 166 177 182 177 174 184 180 168 183 183 184 204 203 199 197 201 201 201 214 220 243 270 295 297 284 283 239 202
195 130 160 199 186 186 178 180 158 148 156 158 159 172 173 174 181 179 172 186 187 172 184 189 186 198 203 198 201 206 208 208 212 200 195 225 239 278 295 290 196 297 326
208 221 190 168 174 165 162 131 139 154 163 166 167 175 181 183 180 178 190 192 178 188 191 200 203 213 227 203 193 193 189 197 211 195 193 198 227 239 259 273 229 215 211
203 211 222 156 136 152 143 138 140 141 147 166 172 179 185 184 180 191 196 186 178 192 203 197 210 210 228 234 251 195 183 182 195 192 192 195 199 212 198 196 249 285 285
257 210 264 157 144 153 153 150 162 162 169 171 182 178 190 186 191 194 193 187 182 200 187 207 205 205 216 207 229 211 221 203 170 178 192 201 206 194 197 198 193 236 248
242 173 165 185 171 163 150 160 161 177 185 174 168 176 188 190 195 178 165 177 194 183 199 209 205 206 200 199 186 200 196 220 155 166 188 200 211 207 206 210 202 216 190
120 110 99 96 128 154 151 150 170 153 137 137 154 179 177 165 165 179 189 186 186 193 207 200 211 204 210 180 196 190 206 214 183 174 170 194 208 220 222 195 225 232 201
40 0 133 127 111 124 144 132 152 159 152 153 170 178 175 169 170 181 184 183 189 200 231 222 219 221 186 185 205 212 220 202 194 190 144 151 196 247 217 221 230 216 229
53 31 12 355 106 103 99 114 128 125 134 152 156 159 168 169 167 165 156 169 208 234 217 213 256 208 193 217 200 217 224 254 284 50 135 179 218 228 216 209 206 213 210
50 42 17 331 36 102 102 116 120 111 106 106 108 115 118 125 113 79 77 109 78 77 175 215 201 188 203 231 204 196 207 196 229 131 120 148 193 205 182 223 222 206 192
53 51 18 330 317 14 85 73 92 108 115 111 122 135 122 115 117 118 103 54 89 79 97 116 134 97 84 89 113 91 258 189 165 182 232 242 210 228 218 212 206 206 214